Time,TemperatureF,DewpointF,PressureIn,WindDirection,WindDirectionDegrees,WindSpeedMPH,WindSpeedGustMPH,Humidity,HourlyPrecipIn,Conditions,Clouds,dailyrainin,SoftwareType,DateUTC
2013-02-01 00:14:00,30.2,10.9,29.71,West,270,9.4,-999.0,44,-99.99,,,0.00,Acu-Link.com,2013-02-01 05:14:00,
2013-02-01 00:29:00,30.4,12.1,29.71,West,270,8.9,-999.0,46,-99.99,,,0.00,Acu-Link.com,2013-02-01 05:29:00,
2013-02-01 00:44:00,30.4,13.6,29.72,SSE,157,3.7,-999.0,49,-99.99,,,0.00,Acu-Link.com,2013-02-01 05:44:00,
2013-02-01 00:59:00,29.8,13.5,29.73,NW,315,2.7,-999.0,50,-99.99,,,0.00,Acu-Link.com,2013-02-01 05:59:00,
2013-02-01 01:15:00,30.0,14.5,29.73,SW,225,4.7,-999.0,52,-99.99,,,0.00,Acu-Link.com,2013-02-01 06:15:00,
2013-02-01 01:30:00,30.2,14.3,29.74,NW,315,6.8,-999.0,51,-99.99,,,0.00,Acu-Link.com,2013-02-01 06:30:00,
2013-02-01 01:45:00,29.8,14.3,29.73,WNW,292,6.3,-999.0,52,-99.99,,,0.00,Acu-Link.com,2013-02-01 06:45:00,
2013-02-01 02:01:00,29.8,14.8,29.73,WSW,247,4.7,-999.0,53,-99.99,,,0.00,Acu-Link.com,2013-02-01 07:01:00,
2013-02-01 02:16:00,30.2,15.2,29.73,NW,315,5.3,-999.0,53,-99.99,,,0.00,Acu-Link.com,2013-02-01 07:16:00,
2013-02-01 02:31:00,30.4,15.3,29.73,SW,225,2.7,-999.0,53,-99.99,,,0.00,Acu-Link.com,2013-02-01 07:31:00,
2013-02-01 02:47:00,29.7,14.7,29.74,SW,225,3.2,-999.0,53,-99.99,,,0.00,Acu-Link.com,2013-02-01 07:47:00,
2013-02-01 03:02:00,30.4,15.3,29.73,SW,225,2.7,-999.0,53,-99.99,,,0.00,Acu-Link.com,2013-02-01 08:02:00,
2013-02-01 03:17:00,29.1,13.7,29.72,WSW,247,7.3,-999.0,52,-99.99,,,0.00,Acu-Link.com,2013-02-01 08:17:00,
2013-02-01 03:32:00,29.1,14.1,29.72,South,180,4.2,-999.0,53,-99.99,,,0.00,Acu-Link.com,2013-02-01 08:32:00,
2013-02-01 03:48:00,28.9,13.1,29.73,West,270,3.7,-999.0,51,-99.99,,,0.00,Acu-Link.com,2013-02-01 08:48:00,
2013-02-01 04:17:00,29.3,13.4,29.73,SW,225,6.8,-999.0,51,-99.99,,,0.00,Acu-Link.com,2013-02-01 09:17:00,
2013-02-01 04:32:00,29.3,13.0,29.72,SW,225,5.3,-999.0,50,-99.99,,,0.00,Acu-Link.com,2013-02-01 09:32:00,
2013-02-01 04:48:00,29.8,13.9,29.73,SSE,157,2.7,-999.0,51,-99.99,,,0.00,Acu-Link.com,2013-02-01 09:48:00,
2013-02-01 05:03:00,29.7,13.8,29.74,West,270,5.3,-999.0,51,-99.99,,,0.00,Acu-Link.com,2013-02-01 10:03:00,
2013-02-01 05:18:00,29.3,13.9,29.74,SW,225,8.9,-999.0,52,-99.99,,,0.00,Acu-Link.com,2013-02-01 10:18:00,
2013-02-01 05:33:00,30.0,15.0,29.74,SSW,202,7.3,-999.0,53,-99.99,,,0.00,Acu-Link.com,2013-02-01 10:33:00,
2013-02-01 05:49:00,29.5,14.5,29.76,SSW,202,5.8,-999.0,53,-99.99,,,0.00,Acu-Link.com,2013-02-01 10:49:00,
2013-02-01 06:04:00,29.5,14.5,29.76,SW,225,2.2,-999.0,53,-99.99,,,0.00,Acu-Link.com,2013-02-01 11:04:00,
2013-02-01 06:19:00,29.8,14.8,29.77,SW,225,3.2,-999.0,53,-99.99,,,0.00,Acu-Link.com,2013-02-01 11:19:00,
2013-02-01 06:34:00,30.2,15.2,29.77,NW,315,3.2,-999.0,53,-99.99,,,0.00,Acu-Link.com,2013-02-01 11:34:00,
2013-02-01 06:50:00,30.0,15.0,29.77,SW,225,3.2,-999.0,53,-99.99,,,0.00,Acu-Link.com,2013-02-01 11:50:00,
2013-02-01 07:05:00,30.0,14.5,29.78,WSW,247,5.3,-999.0,52,-99.99,,,0.00,Acu-Link.com,2013-02-01 12:05:00,
2013-02-01 07:20:00,29.5,14.1,29.79,WNW,292,10.4,-999.0,52,-99.99,,,0.00,Acu-Link.com,2013-02-01 12:20:00,
2013-02-01 07:36:00,30.0,14.1,29.79,WSW,247,6.8,-999.0,51,-99.99,,,0.00,Acu-Link.com,2013-02-01 12:36:00,
2013-02-01 07:51:00,30.4,15.3,29.78,WNW,292,9.9,-999.0,53,-99.99,,,0.00,Acu-Link.com,2013-02-01 12:51:00,
2013-02-01 08:06:00,30.0,15.0,29.77,West,270,6.3,-999.0,53,-99.99,,,0.00,Acu-Link.com,2013-02-01 13:06:00,
2013-02-01 08:21:00,30.4,15.3,29.79,WNW,292,3.7,-999.0,53,-99.99,,,0.00,Acu-Link.com,2013-02-01 13:21:00,
2013-02-01 08:39:00,30.2,13.4,29.79,WNW,292,5.3,-999.0,49,-99.99,,,0.00,Acu-Link.com,2013-02-01 13:39:00,
2013-02-01 09:03:00,30.2,14.3,29.79,West,270,9.9,-999.0,51,-99.99,,,0.00,Acu-Link.com,2013-02-01 14:03:00,
2013-02-01 09:18:00,30.7,14.3,29.79,NW,315,7.8,-999.0,50,-99.99,,,0.00,Acu-Link.com,2013-02-01 14:18:00,
2013-02-01 09:33:00,30.6,12.8,29.79,SSE,157,7.3,-999.0,47,-99.99,,,0.00,Acu-Link.com,2013-02-01 14:33:00,
2013-02-01 09:49:00,30.6,11.8,29.80,WNW,292,9.4,-999.0,45,-99.99,,,0.00,Acu-Link.com,2013-02-01 14:49:00,
2013-02-01 10:04:00,30.2,11.4,29.80,WSW,247,10.4,-999.0,45,-99.99,,,0.00,Acu-Link.com,2013-02-01 15:04:00,
2013-02-01 10:19:00,30.4,11.1,29.81,WSW,247,13.0,-999.0,44,-99.99,,,0.00,Acu-Link.com,2013-02-01 15:19:00,
2013-02-01 10:35:00,30.6,11.3,29.80,NW,315,6.3,-999.0,44,-99.99,,,0.00,Acu-Link.com,2013-02-01 15:35:00,
2013-02-01 10:50:00,31.1,10.7,29.79,West,270,7.8,-999.0,42,-99.99,,,0.00,Acu-Link.com,2013-02-01 15:50:00,
2013-02-01 11:05:00,30.4,9.5,29.80,West,270,14.0,-999.0,41,-99.99,,,0.00,Acu-Link.com,2013-02-01 16:05:00,
2013-02-01 11:21:00,31.3,10.9,29.79,West,270,17.1,-999.0,42,-99.99,,,0.00,Acu-Link.com,2013-02-01 16:21:00,
2013-02-01 11:36:00,31.5,10.0,29.78,West,270,15.5,-999.0,40,-99.99,,,0.00,Acu-Link.com,2013-02-01 16:36:00,
2013-02-01 11:52:00,31.6,9.5,29.78,West,270,9.4,-999.0,39,-99.99,,,0.00,Acu-Link.com,2013-02-01 16:52:00,
2013-02-01 12:07:00,31.6,8.9,29.77,West,270,5.3,-999.0,38,-99.99,,,0.00,Acu-Link.com,2013-02-01 17:07:00,
2013-02-01 12:22:00,30.7,8.7,29.77,NNW,337,5.3,-999.0,39,-99.99,,,0.00,Acu-Link.com,2013-02-01 17:22:00,
2013-02-01 12:37:00,31.8,8.5,29.78,NNW,337,5.3,-999.0,37,-99.99,,,0.00,Acu-Link.com,2013-02-01 17:37:00,
2013-02-01 12:52:00,32.0,9.3,29.78,West,270,13.5,-999.0,38,-99.99,,,0.00,Acu-Link.com,2013-02-01 17:52:00,
2013-02-01 13:08:00,32.7,8.1,29.78,West,270,9.9,-999.0,35,-99.99,,,0.00,Acu-Link.com,2013-02-01 18:08:00,
2013-02-01 13:23:00,32.4,7.8,29.79,West,270,9.4,-999.0,35,-99.99,,,0.00,Acu-Link.com,2013-02-01 18:23:00,
2013-02-01 13:39:00,31.6,10.1,29.80,NNW,337,16.1,-999.0,40,-99.99,,,0.00,Acu-Link.com,2013-02-01 18:39:00,
2013-02-01 13:54:00,31.1,9.1,29.82,NW,315,16.1,-999.0,39,-99.99,,,0.00,Acu-Link.com,2013-02-01 18:54:00,
2013-02-01 14:10:00,30.7,6.9,29.83,West,270,8.3,-999.0,36,-99.99,,,0.00,Acu-Link.com,2013-02-01 19:10:00,
2013-02-01 14:26:00,33.1,7.8,29.83,West,270,14.0,-999.0,34,-99.99,,,0.00,Acu-Link.com,2013-02-01 19:26:00,
2013-02-01 14:41:00,31.6,9.5,29.84,West,270,9.4,-999.0,39,-99.99,,,0.00,Acu-Link.com,2013-02-01 19:41:00,
2013-02-01 15:03:00,31.5,13.1,29.87,SSW,202,7.8,-999.0,46,-99.99,,,0.00,Acu-Link.com,2013-02-01 20:03:00,
2013-02-01 15:18:00,31.8,12.4,29.87,NNW,337,16.1,-999.0,44,-99.99,,,0.00,Acu-Link.com,2013-02-01 20:18:00,
2013-02-01 15:33:00,30.4,10.6,29.88,SW,225,8.3,-999.0,43,-99.99,,,0.00,Acu-Link.com,2013-02-01 20:33:00,
2013-02-01 15:49:00,30.6,9.2,29.89,West,270,19.1,-999.0,40,-99.99,,,0.00,Acu-Link.com,2013-02-01 20:49:00,
2013-02-01 16:04:00,31.1,9.1,29.90,West,270,8.9,-999.0,39,-99.99,,,0.00,Acu-Link.com,2013-02-01 21:04:00,
2013-02-01 16:19:00,30.4,8.4,29.92,SW,225,20.2,-999.0,39,-99.99,,,0.00,Acu-Link.com,2013-02-01 21:19:00,
2013-02-01 16:34:00,30.0,10.2,29.93,SW,225,9.4,-999.0,43,-99.99,,,0.00,Acu-Link.com,2013-02-01 21:34:00,
2013-02-01 16:50:00,29.7,10.5,29.94,West,270,10.4,-999.0,44,-99.99,,,0.00,Acu-Link.com,2013-02-01 21:50:00,
2013-02-01 17:05:00,29.8,12.1,29.95,West,270,9.9,-999.0,47,-99.99,,,0.00,Acu-Link.com,2013-02-01 22:05:00,
2013-02-01 17:20:00,29.1,15.0,29.98,West,270,7.3,-999.0,55,-99.99,,,0.00,Acu-Link.com,2013-02-01 22:20:00,
2013-02-01 17:35:00,27.7,16.8,29.98,West,270,6.3,-999.0,63,-99.99,,,0.00,Acu-Link.com,2013-02-01 22:35:00,
2013-02-01 17:59:00,27.7,15.7,30.00,West,270,11.4,-999.0,60,-99.99,,,0.00,Acu-Link.com,2013-02-01 22:59:00,
2013-02-01 18:14:00,27.7,15.7,30.02,WSW,247,6.3,-999.0,60,-99.99,,,0.00,Acu-Link.com,2013-02-01 23:14:00,
2013-02-01 18:29:00,27.9,15.8,30.03,West,270,8.3,-999.0,60,-99.99,,,0.00,Acu-Link.com,2013-02-01 23:29:00,
2013-02-01 18:45:00,27.7,16.4,30.04,WNW,292,13.0,-999.0,62,-99.99,,,0.00,Acu-Link.com,2013-02-01 23:45:00,
2013-02-01 19:00:00,27.5,16.2,30.05,West,270,8.3,-999.0,62,-99.99,,,0.00,Acu-Link.com,2013-02-02 00:00:00,
2013-02-01 19:15:00,27.1,15.5,30.06,NW,315,8.3,-999.0,61,-99.99,,,0.00,Acu-Link.com,2013-02-02 00:15:00,
2013-02-01 19:31:00,27.1,14.3,30.06,WSW,247,9.4,-999.0,58,-99.99,,,0.00,Acu-Link.com,2013-02-02 00:31:00,
2013-02-01 19:48:00,27.3,14.9,30.07,NW,315,6.8,-999.0,59,-99.99,,,0.00,Acu-Link.com,2013-02-02 00:48:00,
2013-02-01 20:03:00,27.0,12.6,30.08,WNW,292,14.0,-999.0,54,-99.99,,,0.00,Acu-Link.com,2013-02-02 01:03:00,
2013-02-01 20:19:00,27.0,12.6,30.09,WNW,292,15.0,-999.0,54,-99.99,,,0.00,Acu-Link.com,2013-02-02 01:19:00,
2013-02-01 20:34:00,26.6,12.2,30.09,West,270,7.3,-999.0,54,-99.99,,,0.00,Acu-Link.com,2013-02-02 01:34:00,
2013-02-01 20:49:00,26.6,14.6,30.10,SW,225,9.4,-999.0,60,-99.99,,,0.00,Acu-Link.com,2013-02-02 01:49:00,
2013-02-01 21:05:00,26.2,16.1,30.10,SSW,202,3.7,-999.0,65,-99.99,,,0.00,Acu-Link.com,2013-02-02 02:05:00,
2013-02-01 21:20:00,26.4,16.6,30.10,SW,225,4.7,-999.0,66,-99.99,,,0.00,Acu-Link.com,2013-02-02 02:20:00,
2013-02-01 21:37:00,26.2,16.1,30.10,WSW,247,5.3,-999.0,65,-99.99,,,0.00,Acu-Link.com,2013-02-02 02:37:00,
2013-02-01 21:52:00,25.5,15.7,30.11,West,270,5.3,-999.0,66,-99.99,,,0.00,Acu-Link.com,2013-02-02 02:52:00,
2013-02-01 22:07:00,25.7,15.2,30.11,NNE,22,7.8,-999.0,64,-99.99,,,0.00,Acu-Link.com,2013-02-02 03:07:00,
2013-02-01 22:23:00,25.3,14.5,30.12,WNW,292,4.2,-999.0,63,-99.99,,,0.00,Acu-Link.com,2013-02-02 03:23:00,
2013-02-01 22:38:00,25.5,14.3,30.13,WSW,247,5.8,-999.0,62,-99.99,,,0.00,Acu-Link.com,2013-02-02 03:38:00,
2013-02-01 22:53:00,25.5,14.7,30.13,NW,315,7.3,-999.0,63,-99.99,,,0.00,Acu-Link.com,2013-02-02 03:53:00,
2013-02-01 23:09:00,25.5,13.9,30.14,West,270,3.2,-999.0,61,-99.99,,,0.00,Acu-Link.com,2013-02-02 04:09:00,
2013-02-01 23:24:00,25.5,13.6,30.14,ESE,112,4.2,-999.0,60,-99.99,,,0.00,Acu-Link.com,2013-02-02 04:24:00,
2013-02-01 23:39:00,25.3,12.6,30.15,West,270,3.7,-999.0,58,-99.99,,,0.00,Acu-Link.com,2013-02-02 04:39:00,
2013-02-01 23:55:00,25.0,11.5,30.16,WSW,247,10.9,-999.0,56,-99.99,,,0.00,Acu-Link.com,2013-02-02 04:55:00,